This is the latest recevied weather packets stored in our database for station/object PY2SDN-13. If no packets are shown the sender has not sent any weather packets the latest 1 day(s).
| Time | Temp. | Humidity | Pressure | Rain* | Wind** | Luminosity | Snow |
|---|---|---|---|---|---|---|---|
| 1777985104 | 32.22° C | 26% | 1015 hPa | 0 mm | 0 m/s | 0 W/m² | - |
| 1777984204 | 31.67° C | 26% | 1015 hPa | 0 mm | 0 m/s | 0 W/m² | - |
| 1777983304 | 31.11° C | 26% | 1015 hPa | 0 mm | 0 m/s | 0 W/m² | - |
| 1777982404 | 29.44° C | 26% | 1015 hPa | 0 mm | 0 m/s | 0 W/m² | - |
| 1777981504 | 28.33° C | 26% | 1014.9 hPa | 0 mm | 0 m/s | 0 W/m² | - |
| 1777980604 | 27.78° C | 26% | 1014.9 hPa | 0 mm | 0 m/s | 0 W/m² | - |
| 1777979703 | 26.67° C | 26% | 1014.7 hPa | 0 mm | 0.45 m/s, 346° | 0 W/m² | - |
| 1777978804 | 23.89° C | 26% | 1014.6 hPa | 0 mm | 0 m/s | 0 W/m² | - |
| 1777977904 | 22.22° C | 26% | 1014.6 hPa | 0 mm | 0 m/s | 0 W/m² | - |
| 1777977004 | 21.11° C | 26% | 1014.5 hPa | 0 mm | 0 m/s | 0 W/m² | - |
| 1777976103 | 20.56° C | 26% | 1014.1 hPa | 0 mm | 0 m/s | 0 W/m² | - |
| 1777975204 | 20° C | 26% | 1014 hPa | 0 mm | 0 m/s | 0 W/m² | - |
| 1777974303 | 19.44° C | 26% | 1013.6 hPa | 0 mm | 0 m/s | 0 W/m² | - |
| 1777973404 | 19.44° C | 26% | 1013.3 hPa | 0 mm | 0 m/s | 0 W/m² | - |
| 1777972504 | 19.44° C | 26% | 1013.1 hPa | 0 mm | 0 m/s | 0 W/m² | - |
| 1777971603 | 19.44° C | 26% | 1013.1 hPa | 0 mm | 0 m/s | 0 W/m² | - |
| 1777970703 | 19.44° C | 26% | 1012.7 hPa | 0 mm | 0 m/s | 0 W/m² | - |
| 1777969803 | 19.44° C | 26% | 1012.6 hPa | 0 mm | 0 m/s | 0 W/m² | - |
| 1777968903 | 19.44° C | 26% | 1012.4 hPa | 0 mm | 0 m/s | 0 W/m² | - |
| 1777968003 | 19.44° C | 26% | 1012.5 hPa | 0 mm | 0 m/s | 0 W/m² | - |
| 1777967104 | 19.44° C | 26% | 1012.4 hPa | 0 mm | 0 m/s | 0 W/m² | - |
| 1777966203 | 19.44° C | 26% | 1012.4 hPa | 0 mm | 0 m/s | 0 W/m² | - |
* Rain latest hour (hover to see other rain measurements)
** Current wind speed in m/s (hover to see current wind gust speed)